Regional Weather Roundup
Issued by NWS Wilmington, NC

Home | Current Version | Previous Version | Text Only | Print | Product List | Glossary On
Versions: 1 2 3 4 5 6 7 8 9 10 11 12 13 14 15 16 17 18 19 20 21 22 23 24 25 26 27 28 29 30 31 32 33 34 35 36 37 38 39 40 41 42 43 44 45 46 47 48 49 50
000
ASUS42 KILM 270710
RWRILM
RWRILM
REGIONAL HOURLY WEATHER ROUNDUP
NATIONAL WEATHER SERVICE WILMINGTON NC
200 AM EST THU NOV 27 2014

NOTE: "FAIR" INDICATES FEW OR NO CLOUDS BELOW 12,000 FEET WITH NO
SIGNIFICANT WEATHER AND/OR OBSTRUCTIONS TO VISIBILITY.

...............WFO WILMINGTON COUNTY WARNING AREA...............

......COASTAL NC AND SC COUNTIES......

CITY           SKY/WX    TMP DP  RH WIND       PRES   REMARKS
WILMINGTON     PTCLDY    39  39 100 CALM      30.11R FOG
SOUTHPORT      CLEAR     40  40  97 CALM      30.11S
N MYRTLE BEACH CLEAR     39  38  96 CALM      30.08F FOG
MYRTLE BEACH   CLEAR     45  43  93 SW6       30.10S

......INLAND NC AND SC COUNTIES.......

CITY           SKY/WX    TMP DP  RH WIND       PRES   REMARKS
LUMBERTON      CLEAR     41  39  93 S5        30.06F
ELIZABETHTOWN  FOG       39  39 100 SE3       30.09S VSB 1/2
WHITEVILLE     CLEAR     39  37  93 CALM      30.07F
FLORENCE       CLEAR     41  39  93 SW6       30.07S
DARLINGTON     CLEAR     39  36  87 S3        30.07S

....................REST OF NORTH CAROLINA......................

.........EASTERN NC.........

CITY           SKY/WX    TMP DP  RH WIND       PRES   REMARKS
CAPE HATTERAS  CLOUDY    42  40  92 NW8       30.08R
JACKSONVILLE   PTCLDY    36  32  87 CALM      30.10R
MOREHEAD CITY  MOCLDY    42  38  85 N3        30.10S
KENANSVILLE    MOCLDY    37  37 100 CALM      30.10R
NEW BERN       CLEAR     38  35  89 CALM      30.11R
ELIZABETH CITY CLEAR     39  35  86 W5        30.08S

.........CENTRAL NC.........

CITY           SKY/WX    TMP DP  RH WIND       PRES   REMARKS
RALEIGH DURHAM MOCLDY    40  38  93 SE3       30.06S
ROCKY MOUNT    CLOUDY    37  36  96 CALM      30.08R
ROANOKE RAPIDS NOT AVBL
FAYETTEVILLE   CLEAR     37  36  96 E3        30.06F FOG
HOFFMAN        PTCLDY    37  37 100 S2        30.07R

.........WESTERN NC.........

CITY           SKY/WX    TMP DP  RH WIND       PRES   REMARKS
CHARLOTTE      CLOUDY    42  30  62 SW6       30.02S
GREENSBORO     CLOUDY    41  39  93 CALM      30.01S
HICKORY        NOT AVBL
BOONE          NOT AVBL
ASHEVILLE      NOT AVBL

.....................REST OF SOUTH CAROLINA.....................

.........EASTERN SC.........

CITY           SKY/WX    TMP DP  RH WIND       PRES   REMARKS
CHARLESTON     CLEAR     41  38  89 SW7       30.11F
BEAUFORT MCAS  CLEAR     46  36  68 SW10      30.14R
HILTON HEAD    CLEAR     46  37  71 SW7       30.16S

.........CENTRAL SC.........

CITY           SKY/WX    TMP DP  RH WIND       PRES   REMARKS
COLUMBIA       CLOUDY    44  32  62 SW5       30.06F
ORANGEBURG     CLOUDY    42  36  79 SW6       30.09F
SUMTER SHAW    CLOUDY    42  34  72 SW9       30.06S

.........WESTERN SC.........

CITY           SKY/WX    TMP DP  RH WIND       PRES   REMARKS
GREENVILLE     NOT AVBL
ROCK HILL      CLOUDY    43  30  60 SW7       30.02F
ANDERSON       CLOUDY    44  35  70 S6        29.99F
CLEMSON        NOT AVBL
GREENWOOD      CLOUDY    44  29  55 S6        30.03F


...................COASTAL AND OFFSHORE REPORTS..................

................LOCAL PIERS AND NC RESERVE................


STATION/POSITION TIME  SKY/WX   TEMP    WIND        PRES    VSBY
                                AIR SEA DIR/SP/G
                 (UTC)          (F)     (DEG/KT/KT) (MB)    (MI)
JOHNY MRCER PIER 0700            46 60  270/  2/  3 1018.7S
NC RESRV MASNBRO 0600            43        CALM     1019.0S
OCEAN CREST PIER 0700            46 58  360/  2/  3 1018.5S
SPRINGMAID  PIER 0700            47 57  240/  6/  8 1018.8F


................COASTAL AND OFFSHORE BUOYS................


STATION/POSITION TIME  SKY/WX   TEMP    WIND        PRES    VSBY
                                AIR SEA DIR/SP/G
                 (UTC)          (F)     (DEG/KT/KT) (MB)    (MI)
DIMNDSHOAL 41025 0700            47     290/ 16/ 21 1018.2R
WVE H/P(F/S)=  8/ 9 WND WVE H/P(F/S)=  5/ 7 SWL H/P/D(F/S/D)=  7/170/ 9

CAPE LOOKOUT     0600            45     310/  8/ 11 1019.0F
ONSLOW BAY 41036 0600            49 66  350/ 10/ 14 1019.4F
5 WRITEBCH 41038 0600            45 59   70/  2/  2 1018.5F
MASONBORO  41110 0700               59                N/A
WVE H/P(F/S)=  2/ 8 WND WVE H/P(F/S)=  2/ 8

WILM HARBR 41108 0700               62                N/A
WVE H/P(F/S)=  2/ 9 WND WVE H/P(F/S)=  2/ 9

27WRITEBCH 41037 0600            48 67   20/  6/  8 1019.7F
FRYING PAN 41013 0700            55 71  270/  6/ 10 1020.0R
WVE H/P(F/S)=  4/ 9 WND WVE H/P(F/S)=  2/ 4 SWL H/P/D(F/S/D)=  3/140/ 9

SUNST NRSH 41024 NOT AVBL
CAPRS NRSH 41029 0600            53     290/ 14/ 16   N/A
EDISTO     41004 0700            61 74  270/ 19/ 23 1019.3S
WVE H/P(F/S)=  5/ 5 WND WVE H/P(F/S)=  5/ 5 SWL H/P/D(F/S/D)=  2/ 8



..........OFFSHORE BUOYS BEYOND 100 NM OFFSHORE...........
.....IN A TRIANGLE---HAT TO BERMUDA TO BAHAMAS TO HAT.....


STATION/POSITION TIME  SKY/WX   TEMP    WIND        PRES    VSBY
                                AIR SEA DIR/SP/G
                 (UTC)          (F)     (DEG/KT/KT) (MB)    (MI)
150E HAT   41001 NOT AVBL
W BERMUDA  41048 0645            76 75  190/ 23/ 31 1014.8F
WVE H/P(F/S)=  8/ 8 WND WVE H/P(F/S)=  7/ 8 SWL H/P/D(F/S/D)=  3/ 40/14

ATLANTIC S 41049 0554            79 78  110/ 14/ 16 1019.6F
WVE H/P(F/S)=  7/ 9 WND WVE H/P(F/S)=  3/ 5 SWL H/P/D(F/S/D)=  7/110/ 9

E BAHAMAS  41046 0615            79 80  110/ 12/ 16 1016.9F
WVE H/P(F/S)=  9/10 WND WVE H/P(F/S)=  3/ 6 SWL H/P/D(F/S/D)=  8/ 90/10

NE BAHAMAS 41047 0607            78 78  180/ 10/ 12 1017.4F
WVE H/P(F/S)=  7/ 9 WND WVE H/P(F/S)=  2/ 4 SWL H/P/D(F/S/D)=  7/110/ 9

120E CANVRL41010 0700            68 77  320/ 14/ 16 1020.8R
WVE H/P(F/S)=  7/ 8 WND WVE H/P(F/S)=  3/ 6 SWL H/P/D(F/S/D)=  5/360/ 8


END


USA.gov is the U.S. government's official web portal to all federal, state and local government web resources and services.